Weather History for Alpena, MI

Change the Weather History Date:

Tuesday, May 14, 2013

  Actual Average Record
Temperature  
Mean Temperature 47 °F 52 °F  
Max Temperature 56 °F 64 °F 87 °F (1958)
Min Temperature 37 °F 40 °F 24 °F (1920)
Degree Days  
Heating Degree Days 18 13  
Month to date heating degree days 184 215  
Since 1 July heating degree days 7425 7774  
Cooling Degree Days 0 0  
Month to date cooling degree days 1 0  
Year to date cooling degree days 1 2  
Moisture  
Dew Point 37 °F    
Average Humidity 70    
Maximum Humidity 89    
Minimum Humidity 51    
Precipitation  
Precipitation 0.06 in 0.09 in 1.73 in (1930)
Month to date precipitation 1.77 1.13  
Year to date precipitation 12.44 8.36  
Sea Level Pressure  
Sea Level Pressure 29.91 in    
Wind  
Wind Speed 9 mph (SE)    
Max Wind Speed 22 mph    
Max Gust Speed 29 mph    
Visibility 10 miles    
Events Rain , Thunderstorm    
T = Trace of Precipitation, MM = Missing Value Source: NWS Daily Summary

Daily Weather History Graph

Daily Weather History Graph

Search for Another Location

Airport:

Trip Planner

Search our weather history database for the weather conditions in past years. The results will help you decide how hot, cold, wet, or windy it might be!

Date:

Astronomy

May. 14, 2013 Rise Set
Actual Time 6:05 AM EDT 8:56 PM EDT
Civil Twilight 5:31 AM EDT 9:30 PM EDT
Nautical Twilight 4:48 AM EDT 10:13 PM EDT
Astronomical Twilight 3:57 AM EDT 11:05 PM EDT
Moon 9:45 AM EDT (5/14) 12:03 AM EDT (5/14)
Length of Visible Light 15h 58m
Length of Day
14h 50m
Waxing Crescent, 19% of the Moon is Illuminated
May 14
Waxing Crescent
May 18
First Quarter
May 25
Full
May 31
Last Quarter
Jun 8
New

Hourly Weather History & Observations

Time (EDT) Temp. Windchill Dew Point Humidity Pressure Visibility Wind Dir Wind Speed Gust Speed Precip Events Conditions
12:54 AM 37.0 °F 33.3 °F 28.9 °F 73% 30.08 in 10.0 mi SSE 4.6 mph - N/A   Scattered Clouds
1:54 AM 37.0 °F 34.5 °F 30.0 °F 76% 30.05 in 10.0 mi SSE 3.5 mph - N/A   Scattered Clouds
2:54 AM 37.0 °F 34.5 °F 30.9 °F 79% 30.04 in 10.0 mi South 3.5 mph - N/A   Overcast
3:54 AM 37.0 °F - 32.0 °F 82% 30.02 in 10.0 mi Calm Calm - N/A   Overcast
4:54 AM 37.9 °F 35.5 °F 33.1 °F 83% 30.01 in 10.0 mi SSE 3.5 mph - N/A   Overcast
5:54 AM 39.9 °F - 33.1 °F 77% 30.02 in 10.0 mi Calm Calm - 0.01 in Rain Light Rain
6:54 AM 39.0 °F 36.8 °F 36.0 °F 89% 30.01 in 10.0 mi SE 3.5 mph - 0.03 in Rain Light Rain
7:54 AM 39.0 °F 34.8 °F 36.0 °F 89% 30.00 in 10.0 mi ESE 5.8 mph - 0.02 in Rain Light Rain
8:54 AM 41.0 °F 34.3 °F 37.9 °F 89% 29.97 in 10.0 mi SSE 11.5 mph - 0.00 in   Overcast
9:54 AM 43.0 °F 37.2 °F 39.0 °F 86% 29.97 in 10.0 mi SSE 10.4 mph - N/A   Overcast
10:54 AM 46.0 °F 39.6 °F 39.9 °F 79% 29.93 in 10.0 mi SE 15.0 mph 24.2 mph N/A   Overcast
11:54 AM 48.9 °F - 39.0 °F 69% 29.91 in 10.0 mi SE 18.4 mph 26.5 mph N/A   Mostly Cloudy
12:54 PM 53.1 °F - 39.9 °F 61% 29.91 in 10.0 mi SE 11.5 mph - N/A   Partly Cloudy
1:54 PM 55.9 °F - 37.0 °F 49% 29.89 in 10.0 mi SSE 13.8 mph 24.2 mph N/A   Clear
2:54 PM 50.0 °F - 39.0 °F 66% 29.88 in 10.0 mi ESE 16.1 mph - N/A   Clear
3:54 PM 51.1 °F - 39.9 °F 66% 29.88 in 10.0 mi SE 17.3 mph 21.9 mph N/A   Clear
4:54 PM 50.0 °F - 39.9 °F 68% 29.87 in 10.0 mi SE 13.8 mph 20.7 mph N/A   Clear
5:54 PM 48.9 °F - 39.9 °F 71% 29.85 in 10.0 mi SE 12.7 mph - N/A   Clear
6:54 PM 46.9 °F - 39.9 °F 77% 29.83 in 10.0 mi ESE 11.5 mph 18.4 mph N/A   Clear
7:54 PM 48.0 °F - 39.9 °F 74% 29.81 in 10.0 mi ESE 10.4 mph - N/A   Clear
8:54 PM 46.0 °F 41.9 °F 39.9 °F 79% 29.80 in 10.0 mi ESE 8.1 mph - N/A   Scattered Clouds
9:54 PM 45.0 °F 40.1 °F 37.9 °F 76% 29.77 in 10.0 mi ESE 9.2 mph - N/A   Clear
10:54 PM 45.0 °F 40.6 °F 39.0 °F 80% 29.76 in 10.0 mi SE 8.1 mph - N/A Thunderstorm Thunderstorm
11:22 PM 44.6 °F 40.2 °F 39.2 °F 81% 29.74 in 10.0 mi SE 8.1 mph - N/A   Scattered Clouds
11:54 PM 45.0 °F 40.1 °F 39.0 °F 80% 29.74 in 10.0 mi SSE 9.2 mph - N/A   Mostly Cloudy